Regional Weather Roundup
Issued by NWS

Home | Current Version | Previous Version | Text Only | Print | Product List | Glossary Off
Versions: 1 2 3 4 5 6 7 8 9 10 11 12 13 14 15 16 17 18 19 20 21 22 23 24 25 26 27 28 29 30 31 32 33 34 35 36 37 38 39 40 41 42 43 44 45 46 47 48 49 50

913
ASUS43 KFSD 270710
RWRSD

WEATHER ROUNDUP FOR SOUTH DAKOTA
NATIONAL WEATHER SERVICE SIOUX FALLS SD
200 AM CDT THU JUL 27 2017

NOTE: "FAIR" INDICATES FEW OR NO CLOUDS BELOW 12,000 FEET WITH NO
SIGNIFICANT WEATHER AND/OR OBSTRUCTIONS TO VISIBILITY.


SDZ001>005-009-010-012>017-270800-
NORTHWEST AND NORTH CENTRAL SOUTH DAKOTA

CITY           SKY/WX    TMP DP  RH WIND       PRES   REMARKS
BUFFALO          N/A     69  52  54 E8        30.07S
FAITH            N/A     65  52  62 S13       30.14S
MOBRIDGE       CLEAR     69  57  65 E15       30.11S
$$

SDZ012>016-024>037-041>051-057-063-072>074-270800-
SOUTHWEST AND SOUTH CENTRAL SOUTH DAKOTA

CITY           SKY/WX    TMP DP  RH WIND       PRES   REMARKS
RAPID CTY ARPT PTCLDY    67  52  58 E3        30.18R
PIERRE         CLEAR     65  54  67 SE5       30.11R
CUSTER         CLEAR     64  49  57 VRB3      30.31R
PHILIP         CLEAR     72  55  55 SE8       30.13S
PINE RIDGE     CLOUDY    71  62  73 E6        30.19R
SPEARFISH      FAIR      72  54  53 E6        30.18S
WINNER         FAIR      69  57  65 S7        30.14R
$$

SDZ004>011-016>023-039-040-270800-
NORTHEAST SOUTH DAKOTA

CITY           SKY/WX    TMP DP  RH WIND       PRES   REMARKS
ABERDEEN       CLEAR     61  58  90 CALM      30.13R
WATERTOWN      CLEAR     61  58  90 N5        30.12S
BROOKINGS      CLEAR     62  60  93 N5        30.12S
SISSETON         N/A     62  60  93 W6        30.11R
$$

SDZ017-020-022-023-036>040-048>070-270800-
SOUTHEAST SOUTH DAKOTA

CITY           SKY/WX    TMP DP  RH WIND       PRES   REMARKS
SIOUX FALLS    CLEAR     64  62  93 N5        30.09S
HURON          CLEAR     61  59  93 CALM      30.10S
CHAMBERLAIN    CLEAR     68  64  88 CALM      30.12S
MITCHELL       CLEAR     63  62  97 CALM      30.11R
YANKTON        CLEAR     64  61  90 N5        30.10R
$$

ABBREVIATIONS USED IN REMARKS
   TC - TEMPERATURE IN CELSIUS
  WCI - WIND CHILL INDEX
   HX - HEAT INDEX
  VSB - VISIBILITY





USA.gov is the U.S. government's official web portal to all federal, state and local government web resources and services.